Location: Nians�bougou
(13.2321°N, 4.9818°W)
Time: 08:59:03
(UTC+00:00)

Fermi - Pass Details

Date: 18 February 2020
Orbit: 524 x 540 km, 25.6° (Epoch: 08 April)

Event Time Altitude Azimuth Distance (km) Brightness Sun altitude
Exits shadow 05:04:45 50° 160° (SSE) 668 4.3 -24.1°
Maximum altitude 05:04:51 50° 155° (SSE) 667 4.3 -24.1°
Drops below altitude 10° 05:08:46 10° 79° (ENE) 1,744 7.3 -23.1°
Sets 05:11:04 0° 73° (ENE) 2,631 8.4 -22.6°
